Location: Mauna Kea VIS
(19.7591°N, 155.4561°W)
Time: 23:27:25
(UTC-10:00)

BlueWalker 3 - Pass Details

Date: 08 December 2025
Orbit: 451 x 463 km, 53.2° (Epoch: 18 January)

Event Time Altitude Azimuth Distance (km) Brightness Sun altitude
Rises 19:03:26 0° 336° (NNW) 2,484 5.5 -18.4°
Reaches altitude 10° 19:05:46 10° 347° (NNW) 1,608 4.4 -19.0°
Enters shadow 19:06:35 15° 355° (N) 1,330 3.9 -19.1°
